TimeEDT,TemperatureF,Dew PointF,Humidity,Sea Level PressureIn,VisibilityMPH,Wind Direction,Wind SpeedMPH,Gust SpeedMPH,PrecipitationIn,Events,Conditions,WindDirDegrees,DateUTC
12:15 AM,26.1,23.0,88,30.28,10.0,Calm,Calm,-,N/A,,Clear,0,2013-04-26 04:15:00
12:34 AM,24.3,22.1,91,30.28,10.0,Calm,Calm,-,N/A,,Clear,0,2013-04-26 04:34:00
12:55 AM,26.1,23.4,90,30.29,10.0,Calm,Calm,-,N/A,,Clear,0,2013-04-26 04:55:00
1:15 AM,25.2,22.8,91,30.30,10.0,Calm,Calm,-,N/A,,Clear,0,2013-04-26 05:15:00
1:34 AM,23.7,21.2,90,30.30,10.0,Calm,Calm,-,N/A,,Clear,0,2013-04-26 05:34:00
1:55 AM,23.5,21.4,91,30.30,10.0,Calm,Calm,-,N/A,,Clear,0,2013-04-26 05:55:00
2:15 AM,27.5,23.9,86,30.31,10.0,SW,5.8,-,N/A,,Clear,230,2013-04-26 06:15:00
2:35 AM,30.6,23.7,76,30.30,10.0,SW,4.6,-,N/A,,Clear,230,2013-04-26 06:35:00
3:15 AM,33.3,26.2,75,30.30,10.0,WSW,4.6,-,N/A,,Clear,240,2013-04-26 07:15:00
3:35 AM,33.3,26.2,75,30.30,10.0,SW,4.6,-,N/A,,Clear,230,2013-04-26 07:35:00
3:55 AM,33.3,26.4,76,30.30,10.0,SW,4.6,-,N/A,,Clear,220,2013-04-26 07:55:00
4:15 AM,29.7,22.5,75,30.31,10.0,Calm,Calm,-,N/A,,Clear,0,2013-04-26 08:15:00
4:35 AM,22.3,20.1,91,30.31,10.0,Calm,Calm,-,N/A,,Clear,0,2013-04-26 08:35:00
4:55 AM,23.4,21.2,91,30.31,10.0,Calm,Calm,-,N/A,,Clear,0,2013-04-26 08:55:00
5:15 AM,22.3,20.7,93,30.31,10.0,Calm,Calm,-,N/A,,Clear,0,2013-04-26 09:15:00
5:35 AM,21.2,19.2,92,30.31,10.0,Calm,Calm,-,N/A,,Clear,0,2013-04-26 09:35:00
5:55 AM,22.1,20.3,93,30.32,10.0,Calm,Calm,-,N/A,,Clear,0,2013-04-26 09:55:00
6:15 AM,23.2,21.6,94,30.32,10.0,Calm,Calm,-,N/A,,Clear,0,2013-04-26 10:15:00
6:35 AM,22.1,19.9,91,30.32,10.0,Calm,Calm,-,N/A,,Clear,0,2013-04-26 10:35:00
6:55 AM,23.4,21.7,94,30.32,10.0,Calm,Calm,-,N/A,,Clear,0,2013-04-26 10:55:00
7:14 AM,25.5,23.9,94,30.33,10.0,Calm,Calm,-,N/A,,Clear,0,2013-04-26 11:14:00
7:35 AM,28.4,26.6,93,30.33,10.0,Calm,Calm,-,N/A,,Clear,0,2013-04-26 11:35:00
7:55 AM,28.4,27.1,95,30.33,10.0,Calm,Calm,-,N/A,,Clear,0,2013-04-26 11:55:00
8:14 AM,31.1,29.8,95,30.34,10.0,Calm,Calm,-,N/A,,Clear,0,2013-04-26 12:14:00
8:35 AM,35.8,32.0,86,30.34,10.0,Calm,Calm,-,N/A,,Clear,0,2013-04-26 12:35:00
8:55 AM,38.3,30.4,73,30.35,10.0,Calm,Calm,-,N/A,,Clear,0,2013-04-26 12:55:00
9:14 AM,41.2,30.6,66,30.35,10.0,SW,3.5,-,N/A,,Clear,230,2013-04-26 13:14:00
9:35 AM,44.2,30.4,58,30.35,10.0,SW,4.6,-,N/A,,Clear,230,2013-04-26 13:35:00
9:55 AM,47.8,31.3,53,30.34,10.0,SW,4.6,-,N/A,,Clear,220,2013-04-26 13:55:00
10:15 AM,48.4,30.0,49,30.35,10.0,South,9.2,-,N/A,,Scattered Clouds,190,2013-04-26 14:15:00
10:35 AM,48.4,28.8,47,30.35,10.0,SSW,12.7,18.4,N/A,,Scattered Clouds,210,2013-04-26 14:35:00
10:55 AM,48.9,29.1,46,30.34,10.0,SW,12.7,19.6,N/A,,Scattered Clouds,220,2013-04-26 14:55:00
11:15 AM,48.4,27.1,44,30.35,10.0,SSW,13.8,23.0,N/A,,Mostly Cloudy,210,2013-04-26 15:15:00
11:35 AM,50.5,28.6,43,30.35,10.0,SW,13.8,19.6,N/A,,Mostly Cloudy,220,2013-04-26 15:35:00
11:55 AM,49.5,27.9,43,30.35,10.0,SSW,8.1,-,N/A,,Overcast,210,2013-04-26 15:55:00
12:15 PM,49.3,26.8,42,30.34,10.0,SSW,6.9,-,N/A,,Overcast,210,2013-04-26 16:15:00
12:35 PM,51.8,28.0,40,30.33,10.0,SSW,8.1,-,N/A,,Overcast,200,2013-04-26 16:35:00
12:54 PM,50.7,27.1,40,30.33,10.0,South,10.4,16.1,N/A,,Overcast,180,2013-04-26 16:54:00
1:15 PM,52.9,29.1,40,30.31,10.0,South,10.4,17.3,N/A,,Overcast,180,2013-04-26 17:15:00
1:35 PM,54.7,28.9,37,30.30,10.0,South,9.2,20.7,N/A,,Mostly Cloudy,170,2013-04-26 17:35:00
1:55 PM,54.7,28.0,36,30.29,10.0,SSE,15.0,19.6,N/A,,Mostly Cloudy,160,2013-04-26 17:55:00
2:15 PM,56.3,29.1,35,30.29,10.0,SSE,13.8,19.6,N/A,,Mostly Cloudy,160,2013-04-26 18:15:00
2:35 PM,55.9,29.3,36,30.28,10.0,South,15.0,20.7,N/A,,Scattered Clouds,190,2013-04-26 18:35:00
2:55 PM,57.0,30.6,37,30.27,10.0,South,11.5,19.6,N/A,,Clear,190,2013-04-26 18:55:00
3:15 PM,57.4,30.6,36,30.27,10.0,South,12.7,24.2,N/A,,Clear,170,2013-04-26 19:15:00
3:34 PM,58.5,30.7,35,30.26,10.0,South,15.0,23.0,N/A,,Clear,170,2013-04-26 19:34:00
3:55 PM,58.5,30.7,35,30.26,10.0,South,15.0,19.6,N/A,,Scattered Clouds,190,2013-04-26 19:55:00
4:15 PM,58.6,30.6,34,30.24,10.0,South,9.2,21.9,N/A,,Mostly Cloudy,180,2013-04-26 20:15:00
4:34 PM,60.1,29.7,32,30.23,10.0,SW,11.5,26.5,N/A,,Scattered Clouds,220,2013-04-26 20:34:00
4:55 PM,60.1,29.8,32,30.23,10.0,SSE,16.1,19.6,N/A,,Clear,160,2013-04-26 20:55:00
5:15 PM,59.9,29.1,31,30.22,10.0,SSW,15.0,23.0,N/A,,Clear,200,2013-04-26 21:15:00
5:34 PM,59.7,29.1,31,30.21,10.0,SSW,11.5,24.2,N/A,,Clear,200,2013-04-26 21:34:00
5:55 PM,59.9,29.7,32,30.21,10.0,SSW,9.2,20.7,N/A,,Clear,210,2013-04-26 21:55:00
6:15 PM,59.5,29.5,32,30.21,10.0,South,11.5,25.3,N/A,,Scattered Clouds,180,2013-04-26 22:15:00
6:34 PM,59.9,29.3,31,30.21,10.0,South,16.1,20.7,N/A,,Scattered Clouds,170,2013-04-26 22:34:00
6:55 PM,58.8,29.7,33,30.21,10.0,South,11.5,16.1,N/A,,Clear,180,2013-04-26 22:55:00
7:15 PM,59.0,30.0,33,30.21,10.0,South,11.5,16.1,N/A,,Scattered Clouds,180,2013-04-26 23:15:00
7:35 PM,58.5,30.4,34,30.20,10.0,South,9.2,-,N/A,,Scattered Clouds,170,2013-04-26 23:35:00
7:55 PM,58.5,31.3,36,30.20,10.0,South,9.2,19.6,N/A,,Scattered Clouds,170,2013-04-26 23:55:00
8:15 PM,56.3,31.1,38,30.20,10.0,South,9.2,-,N/A,,Mostly Cloudy,170,2013-04-27 00:15:00
8:35 PM,56.3,31.6,39,30.20,10.0,South,4.6,-,N/A,,Overcast,190,2013-04-27 00:35:00
8:55 PM,55.9,32.0,40,30.21,10.0,South,3.5,-,N/A,,Overcast,180,2013-04-27 00:55:00
9:15 PM,55.9,32.0,40,30.22,10.0,South,4.6,-,N/A,,Overcast,180,2013-04-27 01:15:00
9:35 PM,56.3,32.2,40,30.22,10.0,South,5.8,-,N/A,,Overcast,170,2013-04-27 01:35:00
9:55 PM,56.3,32.4,40,30.23,10.0,South,8.1,-,N/A,,Overcast,180,2013-04-27 01:55:00
10:14 PM,55.9,32.5,41,30.23,10.0,South,6.9,-,N/A,,Overcast,180,2013-04-27 02:14:00
10:35 PM,55.9,32.9,42,30.23,10.0,South,6.9,-,N/A,,Overcast,190,2013-04-27 02:35:00
10:55 PM,55.9,33.4,43,30.23,10.0,SSW,6.9,-,N/A,,Overcast,200,2013-04-27 02:55:00
11:14 PM,55.9,34.2,44,30.23,10.0,South,6.9,-,N/A,,Overcast,190,2013-04-27 03:14:00
11:35 PM,54.1,34.3,47,30.23,10.0,SSE,3.5,-,N/A,,Overcast,160,2013-04-27 03:35:00
11:55 PM,54.0,34.7,48,30.23,10.0,Calm,Calm,-,N/A,,Overcast,0,2013-04-27 03:55:00